Location: Northern Prairie Star Party
(53.2167°N, 112.5333°W)
Time: 06:18:15
(UTC-07:00)

MaSat-1 - Visible Passes

Search period start: 23 November 2014 00:00
Search period end: 03 December 2014 00:00
Orbit: 264 x 537 km, 69.4° (Epoch: 23 November)

Date Brightness Start Highest point End Pass type
(mag) Time Alt. Az. Time Alt. Az. Time Alt. Az.
23 Nov ? 18:19:59 10° WNW 18:21:08 12° NW 18:22:16 10° NNW visible
24 Nov ? 17:25:51 10° WSW 17:28:12 24° NW 17:30:24 10° N visible
26 Nov ? 17:13:52 10° W 17:15:42 17° NW 17:17:28 10° N visible
28 Nov ? 16:59:42 10° WNW 17:00:53 12° NW 17:02:02 10° NNW visible
